Location: Emblem
(62.4273°N, 6.4710°E)
Time: 00:50:15
(UTC+02:00)

UWE-3 - Pass Details

Date: 21 March 2023
Orbit: 577 x 669 km, 97.7° (Epoch: 06 June)

Event Time Altitude Azimuth Distance (km) Brightness Sun altitude
Rises 03:49:14 0° 17° (NNE) 3,042 ? -18.3°
Reaches altitude 10° 03:51:30 10° 20° (NNE) 2,121 ? -18.1°
Maximum altitude 03:56:09 71° 105° (ESE) 712 ? -17.7°
Enters shadow 03:59:08 22° 186° (S) 1,465 ? -17.4°
